FENGYUN 1C DEB, 30762

Orbit data source: Space-Track

FENGYUN 1C DEB, 30762 is space debris in SSO originally from a launch on Mon, 10 May 1999 UTC launched from the Taiyaun Space Center, China (TSC). Fengyun 1C debris stems from the Chinese weather satellite Fengyun-1C, which was intentionally destroyed by a Chinese anti-satellite missile in 2007. This event dramatically increased the amount of space debris, with thousands of trackable fragments posing hazards to satellites and human spaceflight. The Fengyun 1C debris cloud has become a focal point in discussions about space sustainability and the need for international regulations to prevent the creation of new debris.

Loading next visibility...
Identifier
30762, 1999-025ATY
Orbit
SSO
Country
Flag of CNCN / PRC
Related business
Manufacturer
Unknown
Mission
Spacecraft
Bus & Motor
Unknown
Mass
Unknown
Launch date (UTC)
1999-05-10 (27 years ago)
Launch vehicle
Unknown
Launch site
Taiyaun Space Center, China (TSC)
Object type
Payload
Rocket body
Debris
Shape & HBR
Unknown shape, 0.1 m
Radar Cross Section
Small (<0.1 m²)

Expand to show TLE details & history
Last TLE update: 2 days ago

TLE from 2 days ago
0 FENGYUN 1C DEB
1 30762U 99025ATY 26119.93721205  .00000282  00000-0  19419-3 0  9990
2 30762  98.8868 111.3957 0196767 272.6908 114.1073 13.98300772975697
Epoch: 2026-04-29T22:29Z
TLE epoch observation values (Epoch: 2026-04-29T22:29:35.121Z)
Latitude
28.50153°
Longitude
-88.73666°
Altitude
963.992 km
Speed
7.341 km/s
True Right ascension
07h 06m 12s
True Declination
28° 21' 42"
Sunlit
Object was in daylight at epoch
Visualization orbit readout
Latitude
Unknown
Longitude
Unknown
Altitude
Unknown
Speed
Unknown
Apparent Right ascension
Unknown
Apparent Declination
Unknown
Sunlit
N/A
Visualization observer readout
Local Sidereal Time
23:26:02
Azimuth
Unknown
Elevation
Unknown
Doppler factor
Unknown
Orbital elements
Apogee altitude
1,040.028 km
Perigee altitude
753.731 km
Semi-major axis
7,275.017 km
Eccentricity
0.01968
Inclination
98.8868°
RAAN
111.3957°
Arg. of periapsis
272.6908°
True anomaly
116.14452°
Mean anomaly
114.1073°
Eccentric anomaly
115.128°
Mean motion
3.49778 °/min
Orbital period
102.92 mins
BSTAR
0.00019419
Loading maneuver chart data...
Computing Atmospheric mass density...
Loading historical data...
Loading historical data...
Loading historical data...
Loading historical data...
Loading historical data...
Loading historical data...
Loading historical data...

Documentation

Showing up to 5 results
|